Location: Gu�tanj
(46.5431°N, 14.9692°E)
Time: 18:26:01
(UTC+00:00)

Cosmos 2237 - Pass Details

Date: 03 March 2021
Orbit: 845 x 857 km, 70.8° (Epoch: 15 April)

Event Time Altitude Azimuth Distance (km) Brightness Sun altitude
Rises 18:06:43 0° 202° (SSW) 3,407 7.6 -14.1°
Reaches altitude 10° 18:09:09 10° 202° (SSW) 2,477 6.8 -14.6°
Maximum altitude 18:14:51 84° 116° (ESE) 866 4.2 -15.5°
Drops below altitude 10° 18:20:37 10° 28° (NNE) 2,499 6.5 -16.5°
Sets 18:23:05 0° 28° (NNE) 3,440 7.2 -16.9°
